EW7526 Weather Reports


Display with metric or nautical units.
time (UTC)temp
F
wind
direction
speed
MPH
gust
MPH
rain 1hr
in
rain 24hr
in
rain mn
in
humidity
%
barometer
mb
20180421020058 73 204 2.0 6.0 0.00 0.00 0.00 22 941.1
20180421015557 73 115 2.0 7.0 0.00 0.00 0.00 22 941.1
20180421015057 73 258 0.0 2.0 0.00 0.00 0.00 22 941.1
20180421014558 74 275 2.0 5.0 0.00 0.00 0.00 22 941.1
20180421014057 74 270 2.0 3.0 0.00 0.00 0.00 22 941.1
20180421013557 74 307 3.0 5.0 0.00 0.00 0.00 22 940.8
20180421013057 74 198 5.0 7.0 0.00 0.00 0.00 22 940.8
20180421012558 74 196 2.0 5.0 0.00 0.00 0.00 22 940.6
20180421012057 75 257 2.0 7.0 0.00 0.00 0.00 22 940.6
20180421011557 75 213 6.0 9.0 0.00 0.00 0.00 22 940.6
20180421011057 75 186 4.0 9.0 0.00 0.00 0.00 22 940.7
20180421010558 74 235 3.0 5.0 0.00 0.00 0.00 22 940.7
20180421010058 75 270 3.0 6.0 0.00 0.00 0.00 22 940.5
20180421005558 75 277 2.0 6.0 0.00 0.00 0.00 22 940.5
20180421005058 75 279 5.0 6.0 0.00 0.00 0.00 22 940.5
20180421004557 75 195 3.0 3.0 0.00 0.00 0.00 22 940.4
20180421004057 75 271 3.0 6.0 0.00 0.00 0.00 22 940.4
20180421003557 76 285 3.0 7.0 0.00 0.00 0.00 22 940.7
20180421003057 75 281 2.0 6.0 0.00 0.00 0.00 22 940.7
20180421002558 75 274 3.0 5.0 0.00 0.00 0.00 22 940.6
20180421002058 75 206 5.0 7.0 0.00 0.00 0.00 22 940.6
20180421001557 75 273 5.0 6.0 0.00 0.00 0.00 22 940.6
20180421001057 74 299 2.0 5.0 0.00 0.00 0.00 22 940.6
20180421000557 74 267 5.0 8.0 0.00 0.00 0.00 22 940.6
20180421000058 74 324 2.0 7.0 0.00 0.00 0.00 22 940.7
20180420235558 74 270 2.0 5.0 0.00 0.00 0.00 22 940.7
20180420235057 75 283 5.0 6.0 0.00 0.00 0.00 22 940.6
20180420234557 76 219 4.0 6.0 0.00 0.00 0.00 21 940.5
20180420234057 76 272 5.0 6.0 0.00 0.00 0.00 21 940.5
20180420233557 76 265 5.0 6.0 0.00 0.00 0.00 21 940.7
20180420233057 76 303 5.0 8.0 0.00 0.00 0.00 21 940.7
20180420232557 77 279 6.0 8.0 0.00 0.00 0.00 21 940.8
20180420232057 77 242 8.0 8.0 0.00 0.00 0.00 21 940.8
20180420231557 76 202 9.0 12.0 0.00 0.00 0.00 21 940.8
20180420231057 77 198 9.0 12.0 0.00 0.00 0.00 21 940.8
20180420230557 77 227 2.0 7.0 0.00 0.00 0.00 21 940.8
20180420230058 77 164 5.0 9.0 0.00 0.00 0.00 21 940.7
20180420225556 77 239 5.0 8.0 0.00 0.00 0.00 21 940.7
20180420225057 77 229 9.0 12.0 0.00 0.00 0.00 21 940.8
20180420224557 77 261 4.0 9.0 0.00 0.00 0.00 21 940.9
20180420224057 76 224 6.0 12.0 0.00 0.00 0.00 21 940.9
20180420223557 77 195 5.0 9.0 0.00 0.00 0.00 21 941.2
20180420223057 77 188 7.0 12.0 0.00 0.00 0.00 21 941.2
20180420222557 77 264 6.0 10.0 0.00 0.00 0.00 20 941.4
20180420222057 77 316 4.0 9.0 0.00 0.00 0.00 20 941.4
20180420221557 76 185 5.0 8.0 0.00 0.00 0.00 20 941.4
20180420221056 77 151 6.0 12.0 0.00 0.00 0.00 20 941.4
20180420220557 77 229 5.0 13.0 0.00 0.00 0.00 20 941.4
20180420220057 75 88 6.0 9.0 0.00 0.00 0.00 21 941.4
20180420215557 75 238 5.0 10.0 0.00 0.00 0.00 21 941.4
20180420215057 75 87 5.0 8.0 0.00 0.00 0.00 21 941.5
20180420214556 74 183 7.0 10.0 0.00 0.00 0.00 21 941.6
20180420214056 74 205 9.0 13.0 0.00 0.00 0.00 21 941.6
20180420213557 74 206 9.0 10.0 0.00 0.00 0.00 21 941.7
20180420213056 74 231 6.0 9.0 0.00 0.00 0.00 21 941.7
20180420212557 75 255 3.0 10.0 0.00 0.00 0.00 21 941.8
20180420212057 74 200 7.0 10.0 0.00 0.00 0.00 21 941.8
20180420211557 73 240 5.0 12.0 0.00 0.00 0.00 22 941.8
20180420211056 73 213 9.0 14.0 0.00 0.00 0.00 22 941.9
20180420210556 74 202 14.0 14.0 0.00 0.00 0.00 21 941.9
20180420210057 74 208 10.0 17.0 0.00 0.00 0.00 21 942.0
20180420205556 74 228 6.0 10.0 0.00 0.00 0.00 22 942.0
20180420205057 73 236 6.0 10.0 0.00 0.00 0.00 22 941.9
20180420204556 73 15 10.0 15.0 0.00 0.00 0.00 21 941.9
20180420204056 74 196 5.0 8.0 0.00 0.00 0.00 22 941.9
20180420203557 73 202 6.0 10.0 0.00 0.00 0.00 22 942.0
20180420203056 73 210 8.0 13.0 0.00 0.00 0.00 22 942.0
20180420202556 72 190 5.0 14.0 0.00 0.00 0.00 22 942.4
20180420202057 73 168 6.0 14.0 0.00 0.00 0.00 22 942.4
20180420201557 72 235 7.0 10.0 0.00 0.00 0.00 22 942.4
20180420201057 72 262 5.0 9.0 0.00 0.00 0.00 22 942.3
20180420200557 72 272 3.0 7.0 0.00 0.00 0.00 22 942.3
20180420200057 72 160 6.0 9.0 0.00 0.00 0.00 22 942.3
20180420195557 72 353 5.0 7.0 0.00 0.00 0.00 22 942.3
20180420195056 71 206 3.0 6.0 0.00 0.00 0.00 22 942.2
20180420194557 71 209 3.0 6.0 0.00 0.00 0.00 22 942.2
20180420194057 71 248 2.0 2.0 0.00 0.00 0.00 23 942.2
20180420193556 71 14 2.0 6.0 0.00 0.00 0.00 23 942.3
20180420193057 72 244 5.0 8.0 0.00 0.00 0.00 22 942.3
20180420192557 70 220 5.0 8.0 0.00 0.00 0.00 23 942.4
20180420192056 71 226 3.0 10.0 0.00 0.00 0.00 23 942.4
20180420191556 69 180 5.0 10.0 0.00 0.00 0.00 23 942.4
20180420191056 71 183 10.0 12.0 0.00 0.00 0.00 23 942.5
20180420190556 69 232 5.0 8.0 0.00 0.00 0.00 24 942.5
20180420190057 68 115 9.0 13.0 0.00 0.00 0.00 24 942.6
20180420185556 68 192 8.0 14.0 0.00 0.00 0.00 24 942.6
20180420185056 70 200 3.0 7.0 0.00 0.00 0.00 24 942.7
20180420184556 69 198 5.0 9.0 0.00 0.00 0.00 24 942.7
20180420184056 68 176 7.0 9.0 0.00 0.00 0.00 24 942.7
20180420183556 69 194 5.0 9.0 0.00 0.00 0.00 24 942.8
20180420183056 69 217 7.0 10.0 0.00 0.00 0.00 25 942.8
20180420182556 68 248 5.0 10.0 0.00 0.00 0.00 25 942.9
20180420182056 68 238 4.0 10.0 0.00 0.00 0.00 25 942.9
20180420181557 68 202 6.0 12.0 0.00 0.00 0.00 25 942.9
20180420181056 67 242 2.0 7.0 0.00 0.00 0.00 26 942.8
20180420180556 68 211 6.0 8.0 0.00 0.00 0.00 26 942.8
20180420180057 67 188 6.0 12.0 0.00 0.00 0.00 26 942.7
20180420175556 68 235 7.0 10.0 0.00 0.00 0.00 26 942.7
20180420175056 68 326 5.0 8.0 0.00 0.00 0.00 26 942.8
20180420174556 67 261 7.0 12.0 0.00 0.00 0.00 26 942.9
20180420174057 67 235 6.0 9.0 0.00 0.00 0.00 26 942.9
20180420173556 66 257 7.0 9.0 0.00 0.00 0.00 26 942.7
20180420173055 67 210 6.0 9.0 0.00 0.00 0.00 26 942.7
20180420172556 67 207 5.0 6.0 0.00 0.00 0.00 26 942.6
20180420172055 66 252 9.0 13.0 0.00 0.00 0.00 26 942.6
20180420171556 66 210 4.0 8.0 0.00 0.00 0.00 26 942.6
20180420171056 65 166 6.0 9.0 0.00 0.00 0.00 26 942.5
20180420170556 66 200 7.0 8.0 0.00 0.00 0.00 26 942.5
20180420170056 66 150 6.0 7.0 0.00 0.00 0.00 25 942.3
20180420165556 65 143 7.0 9.0 0.00 0.00 0.00 26 942.3
20180420165056 66 194 3.0 7.0 0.00 0.00 0.00 26 942.4
20180420164556 64 218 3.0 9.0 0.00 0.00 0.00 27 942.5
20180420164056 65 213 1.0 7.0 0.00 0.00 0.00 27 942.5
20180420163556 64 174 4.0 6.0 0.00 0.00 0.00 27 942.5
20180420163056 64 135 3.0 6.0 0.00 0.00 0.00 27 942.5
20180420162555 64 193 4.0 8.0 0.00 0.00 0.00 27 942.6
20180420162056 64 199 2.0 5.0 0.00 0.00 0.00 27 942.6
20180420161555 64 163 4.0 6.0 0.00 0.00 0.00 28 942.6
20180420161055 63 193 1.0 3.0 0.00 0.00 0.00 28 942.5
20180420160556 62 221 5.0 6.0 0.00 0.00 0.00 28 942.5
20180420160056 63 209 4.0 6.0 0.00 0.00 0.00 29 942.5
20180420155556 62 181 1.0 8.0 0.00 0.00 0.00 29 942.5
20180420155055 63 208 0.0 6.0 0.00 0.00 0.00 30 942.4
20180420154556 62 191 1.0 5.0 0.00 0.00 0.00 30 942.4
20180420154056 63 203 2.0 3.0 0.00 0.00 0.00 30 942.4
20180420153555 62 146 1.0 5.0 0.00 0.00 0.00 30 942.5
20180420153055 62 167 0.0 3.0 0.00 0.00 0.00 31 942.5
20180420152555 61 180 0.0 0.0 0.00 0.00 0.00 32 942.5
20180420152055 61 162 0.0 0.0 0.00 0.00 0.00 32 942.5
20180420151556 61 207 1.0 3.0 0.00 0.00 0.00 32 942.5
20180420151056 60 63 0.0 3.0 0.00 0.00 0.00 34 942.4
20180420150555 60 198 0.0 3.0 0.00 0.00 0.00 34 942.4
20180420150108 59 174 0.0 3.0 0.00 0.00 0.00 35 942.4
20180420145607 59 186 0.0 0.0 0.00 0.00 0.00 35 942.4
20180420145107 58 150 1.0 5.0 0.00 0.00 0.00 37 942.4
20180420144607 57 159 0.0 6.0 0.00 0.00 0.00 38 942.4
20180420144107 55 166 0.0 0.0 0.00 0.00 0.00 39 942.4
20180420143607 54 159 0.0 5.0 0.00 0.00 0.00 42 942.3
20180420143107 53 165 0.0 5.0 0.00 0.00 0.00 43 942.3
20180420142607 53 183 2.0 5.0 0.00 0.00 0.00 43 942.0
20180420142107 53 161 1.0 5.0 0.00 0.00 0.00 44 942.0
20180420141607 52 149 0.0 0.0 0.00 0.00 0.00 45 942.0
20180420141108 52 177 0.0 0.0 0.00 0.00 0.00 45 941.8
20180420140607 52 140 0.0 0.0 0.00 0.00 0.00 45 941.8
20180420140107 52 88 0.0 0.0 0.00 0.00 0.00 45 941.7
20180420135607 51 149 0.0 0.0 0.00 0.00 0.00 45 941.7
20180420135107 51 165 0.0 0.0 0.00 0.00 0.00 45 941.8
20180420134607 51 150 0.0 0.0 0.00 0.00 0.00 46 941.8
20180420134107 51 172 0.0 0.0 0.00 0.00 0.00 46 941.8
20180420133606 51 168 0.0 0.0 0.00 0.00 0.00 46 941.4
20180420133107 51 148 0.0 0.0 0.00 0.00 0.00 46 941.4
20180420132607 51 132 0.0 0.0 0.00 0.00 0.00 47 941.1
20180420132107 51 151 0.0 0.0 0.00 0.00 0.00 47 941.1
20180420131606 50 136 0.0 0.0 0.00 0.00 0.00 47 941.1
20180420131107 50 142 0.0 0.0 0.00 0.00 0.00 47 941.1
20180420130606 50 169 0.0 0.0 0.00 0.00 0.00 47 941.1
20180420130106 50 85 0.0 0.0 0.00 0.00 0.00 48 941.3
20180420125606 49 167 0.0 0.0 0.00 0.00 0.00 48 941.3
20180420125106 49 139 0.0 0.0 0.00 0.00 0.00 49 941.3
20180420124606 49 178 0.0 0.0 0.00 0.00 0.00 49 941.3
20180420124106 49 88 0.0 0.0 0.00 0.00 0.00 49 941.3
20180420123605 49 136 0.0 0.0 0.00 0.00 0.00 49 941.1
20180420123106 49 139 0.0 0.0 0.00 0.00 0.00 49 941.1
20180420122605 49 230 0.0 0.0 0.00 0.00 0.00 49 941.2
20180420122106 49 144 0.0 0.0 0.00 0.00 0.00 49 941.2
20180420121605 49 201 0.0 0.0 0.00 0.00 0.00 49 941.2
20180420121106 49 147 0.0 0.0 0.00 0.00 0.00 49 941.0
20180420120605 49 155 0.0 0.0 0.00 0.00 0.00 49 941.0
20180420120106 49 165 0.0 0.0 0.00 0.00 0.00 49 940.8
20180420115606 49 126 0.0 0.0 0.00 0.00 0.00 49 940.8
20180420115106 49 124 0.0 0.0 0.00 0.00 0.00 49 940.7
20180420114606 49 161 0.0 0.0 0.00 0.00 0.00 49 940.6
20180420114106 48 153 0.0 0.0 0.00 0.00 0.00 48 940.6
20180420113605 49 151 0.0 0.0 0.00 0.00 0.00 48 940.5
20180420113106 49 145 0.0 0.0 0.00 0.00 0.00 47 940.5
20180420112605 49 138 0.0 0.0 0.00 0.00 0.00 47 940.3
20180420112105 49 171 0.0 0.0 0.00 0.00 0.00 46 940.3
20180420111605 50 161 0.0 0.0 0.00 0.00 0.00 46 940.3
20180420111106 50 167 0.0 0.0 0.00 0.00 0.00 46 940.1
20180420110605 50 158 0.0 0.0 0.00 0.00 0.00 46 940.1
20180420110106 50 170 0.0 0.0 0.00 0.00 0.00 45 940.0
20180420105605 51 180 0.0 0.0 0.00 0.00 0.00 45 940.0
20180420105105 50 178 0.0 0.0 0.00 0.00 0.00 45 939.9
20180420104605 50 161 0.0 0.0 0.00 0.00 0.00 45 939.9
20180420104105 50 162 0.0 0.0 0.00 0.00 0.00 45 939.9
20180420103605 50 169 0.0 0.0 0.00 0.00 0.00 45 939.5
20180420103105 50 142 0.0 0.0 0.00 0.00 0.00 45 939.5
20180420102606 51 162 0.0 0.0 0.00 0.00 0.00 45 939.5
20180420102110 51 122 0.0 0.0 0.00 0.00 0.00 45 939.5
20180420101606 51 171 0.0 0.0 0.00 0.00 0.00 45 939.5
20180420101105 51 161 0.0 0.0 0.00 0.00 0.00 44 939.3
20180420100606 51 90 0.0 0.0 0.00 0.00 0.00 44 939.3
20180420100106 51 158 0.0 0.0 0.00 0.00 0.00 44 939.3
20180420095606 51 162 0.0 0.0 0.00 0.00 0.00 44 939.3
20180420095105 51 171 0.0 0.0 0.00 0.00 0.00 44 939.3
20180420094605 51 120 0.0 0.0 0.00 0.00 0.00 44 939.3
20180420094106 51 81 0.0 0.0 0.00 0.00 0.00 44 939.3
20180420093606 51 139 0.0 0.0 0.00 0.00 0.00 44 939.2
20180420093105 51 140 0.0 0.0 0.00 0.00 0.00 44 939.2
20180420092605 51 157 0.0 0.0 0.00 0.00 0.00 44 939.1
20180420092105 51 119 0.0 0.0 0.00 0.00 0.00 44 939.1
20180420091605 51 168 0.0 0.0 0.00 0.00 0.00 44 939.1
20180420091105 51 147 0.0 0.0 0.00 0.00 0.00 44 939.1
20180420090605 51 158 0.0 0.0 0.00 0.00 0.00 44 939.1
20180420090107 51 158 0.0 0.0 0.00 0.00 0.00 44 939.1
20180420085606 51 166 0.0 0.0 0.00 0.00 0.00 43 939.1
20180420085104 52 158 0.0 0.0 0.00 0.00 0.00 43 939.0
20180420084605 52 166 0.0 0.0 0.00 0.00 0.00 42 938.9
20180420084105 52 100 0.0 0.0 0.00 0.00 0.00 42 938.9
20180420083607 52 158 0.0 0.0 0.00 0.00 0.00 41 938.8
20180420083107 53 133 0.0 0.0 0.00 0.00 0.00 41 938.8
20180420082605 53 165 0.0 0.0 0.00 0.00 0.00 40 938.8
20180420082104 53 132 0.0 0.0 0.00 0.00 0.00 40 938.8
20180420081605 54 140 0.0 0.0 0.00 0.00 0.00 40 938.8
20180420081105 54 101 0.0 0.0 0.00 0.00 0.00 39 938.7
20180420080607 55 160 0.0 0.0 0.00 0.00 0.00 39 938.7
20180420080106 55 164 0.0 0.0 0.00 0.00 0.00 38 938.5
20180420075605 56 212 0.0 0.0 0.00 0.00 0.00 38 938.5
20180420075105 56 198 0.0 0.0 0.00 0.00 0.00 38 938.5
20180420074605 56 192 0.0 0.0 0.00 0.00 0.00 38 938.5
20180420074105 56 189 0.0 0.0 0.00 0.00 0.00 37 938.5
20180420073604 56 172 0.0 0.0 0.00 0.00 0.00 37 938.5
20180420073105 56 158 0.0 0.0 0.00 0.00 0.00 37 938.5
20180420072605 56 201 0.0 0.0 0.00 0.00 0.00 36 938.5
20180420072105 56 188 0.0 0.0 0.00 0.00 0.00 36 938.5
20180420071605 57 194 0.0 0.0 0.00 0.00 0.00 36 938.5
20180420071105 57 206 0.0 0.0 0.00 0.00 0.00 36 938.4
20180420070613 57 181 0.0 0.0 0.00 0.00 0.00 35 938.4
20180420070106 57 194 0.0 0.0 0.00 0.00 0.00 35 938.3
20180420065604 57 185 0.0 0.0 0.00 0.00 0.00 35 938.3
20180420065105 57 195 0.0 0.0 0.00 0.00 0.00 34 938.2
20180420064604 58 225 0.0 0.0 0.00 0.00 0.00 34 938.2
20180420064104 58 189 0.0 0.0 0.00 0.00 0.00 34 938.2
20180420063605 58 186 0.0 0.0 0.00 0.00 0.00 34 938.1
20180420063105 58 211 0.0 0.0 0.00 0.00 0.00 34 938.1
20180420062605 58 192 0.0 0.0 0.00 0.00 0.00 34 938.0
20180420062104 58 216 0.0 0.0 0.00 0.00 0.00 34 938.0
20180420061604 58 215 0.0 0.0 0.00 0.00 0.00 34 938.0
20180420061104 58 203 0.0 0.0 0.00 0.00 0.00 34 938.0
20180420060605 58 221 0.0 0.0 0.00 0.00 0.00 33 938.0
20180420060105 58 247 0.0 0.0 0.00 0.00 0.00 33 937.7
20180420055605 59 184 0.0 0.0 0.00 0.00 0.00 33 937.7
20180420055104 59 203 0.0 1.0 0.00 0.00 0.00 32 937.6
20180420054605 59 196 1.0 5.0 0.00 0.00 0.00 32 937.5
20180420054105 59 150 2.0 3.0 0.00 0.00 0.00 31 937.5
20180420053604 59 210 2.0 5.0 0.00 0.00 0.00 31 937.5
20180420053104 60 198 2.0 5.0 0.00 0.00 0.00 30 937.5
20180420052605 60 180 0.0 6.0 0.00 0.00 0.00 30 937.3
20180420052105 60 175 0.0 1.0 0.00 0.00 0.00 30 937.3
20180420051605 60 278 0.0 0.0 0.00 0.00 0.00 29 937.3
20180420051104 60 176 4.0 8.0 0.00 0.00 0.00 29 937.2
20180420050605 61 251 5.0 8.0 0.00 0.00 0.00 28 937.2
20180420050105 61 210 0.0 6.0 0.00 0.00 0.00 27 937.0
20180420045605 61 201 1.0 7.0 0.00 0.00 0.00 27 937.0
20180420045105 61 211 3.0 8.0 0.00 0.00 0.00 27 937.0
20180420044605 61 139 2.0 3.0 0.00 0.00 0.00 26 937.0
20180420044105 61 213 3.0 6.0 0.00 0.00 0.00 26 937.0
20180420043604 61 235 1.0 7.0 0.00 0.00 0.00 26 937.0
20180420043105 62 275 2.0 7.0 0.00 0.00 0.00 26 937.0
20180420042604 62 152 0.0 6.0 0.00 0.00 0.00 25 936.9
20180420042104 62 193 0.0 5.0 0.00 0.00 0.00 25 936.9
20180420041604 62 174 3.0 7.0 0.00 0.00 0.00 25 936.9
20180420041105 62 239 3.0 6.0 0.00 0.00 0.00 25 936.8
20180420040604 62 202 2.0 5.0 0.00 0.00 0.00 25 936.8
20180420040105 63 189 0.0 3.0 0.00 0.00 0.00 24 936.8
20180420035604 63 201 4.0 6.0 0.00 0.00 0.00 24 936.8
20180420035104 63 217 3.0 6.0 0.00 0.00 0.00 24 936.7
20180420034604 63 183 4.0 7.0 0.00 0.00 0.00 24 936.7
20180420034104 63 204 3.0 6.0 0.00 0.00 0.00 24 936.7
20180420033604 63 173 3.0 6.0 0.00 0.00 0.00 24 936.7
20180420033104 64 202 0.0 2.0 0.00 0.00 0.00 24 936.7
20180420032603 64 230 3.0 6.0 0.00 0.00 0.00 24 936.6
20180420032104 64 215 0.0 5.0 0.00 0.00 0.00 24 936.6
20180420031603 64 215 1.0 5.0 0.00 0.00 0.00 24 936.6
20180420031103 64 23 3.0 8.0 0.00 0.00 0.00 24 936.4
20180420030603 65 222 3.0 8.0 0.00 0.00 0.00 24 936.4
20180420030104 65 249 1.0 6.0 0.00 0.00 0.00 23 936.2
20180420025603 65 249 1.0 6.0 0.00 0.00 0.00 23 936.2
20180420025104 65 145 1.0 8.0 0.00 0.00 0.00 23 936.1
20180420024603 65 228 3.0 10.0 0.00 0.00 0.00 23 936.0
20180420024103 66 161 8.0 10.0 0.00 0.00 0.00 22 936.0
20180420023603 66 214 5.0 10.0 0.00 0.00 0.00 22 935.7
20180420023103 66 201 5.0 7.0 0.00 0.00 0.00 21 935.7
20180420022603 67 225 5.0 10.0 0.00 0.00 0.00 21 935.6
20180420022103 67 208 3.0 10.0 0.00 0.00 0.00 21 935.6
20180420020603 68 205 6.0 10.0 0.00 0.00 0.00 19 935.5